Air Resources Laboratory banner image
Air Resources Laboratory web site National Oceanic and Atmospheric Administration (NOAA)

ia roundup


Office: DMX

ASUS43 KDMX 150001
RWRIA

WEATHER ROUNDUP FOR IOWA
NATIONAL WEATHER SERVICE DES MOINES IA
600 PM CST THU DEC 14 2017

NOTE: "FAIR" INDICATES FEW OR NO CLOUDS BELOW 12,000 FEET WITH NO
SIGNIFICANT WEATHER AND/OR OBSTRUCTIONS TO VISIBILITY.

* - THESE STATIONS ARE NOT NWS STATIONS...THUS NOT UNDER NWS
QUALITY CONTROL.  THEY ALSO DO NOT REPORT WEATHER SUCH
AS PRECIPITATION OR FOG.

IAZ001>003-012>014-020>022-031>034-043>046-150100-
   NORTHWEST IOWA

CITY           SKY/WX    TMP DP  RH WIND       PRES   REMARKS
CARROLL *      CLOUDY    32  23  69 CALM      30.07R
CHEROKEE *     CLOUDY    32  28  85 CALM      30.06S
DENISON *      CLOUDY    32  23  69 CALM      30.08S
LE MARS *      MIX PCPN  36  28  75 NW7       30.08R WCI  30
ORANGE CITY *  CLOUDY    34  30  86 NW10      30.06R WCI  26
SHELDON *      CLOUDY    32  30  93 NW9       30.04R WCI  24
SIOUX CITY     CLOUDY    37  26  64 NW10      30.09R WCI  30
6HR MIN TEMP:  36; 6HR MAX TEMP:  39;

SPENCER        CLOUDY    30  24  78 NW5       30.06R WCI  25
6HR MIN TEMP:  28; 6HR MAX TEMP:  33; 6HR PCP: TRACE;

STORM LAKE *   MIX PCPN  32  27  80 NW6       30.05S WCI  26
$$

IAZ055>058-069>071-079>083-090>094-150100-
   SOUTHWEST IOWA

CITY           SKY/WX    TMP DP  RH WIND       PRES   REMARKS
ATLANTIC *     CLOUDY    34  23  64 CALM      30.08S
AUDUBON *      CLOUDY    34  25  69 CALM      30.08S
CLARINDA *       N/A     36  25  64 N8          N/A  WCI  29
COUNCIL BLFS * CLOUDY    36  27  69 NE3       30.09R
CRESTON *      CLOUDY    30  25  80 NW6       30.09S WCI  24
HARLAN  *      MOCLDY    30  23  74 CALM      30.11S
LAMONI         CLOUDY    32  23  69 NW3       30.08R
6HR MIN TEMP:  32; 6HR MAX TEMP:  34;

RED OAK *      CLOUDY    36  25  64 NE5       30.10R WCI  32
SHENANDOAH *   CLOUDY    36  25  64 N3        30.10S
$$

IAZ047>049-059>061-072>074-084-150100-
   CENTRAL IOWA

CITY           SKY/WX    TMP DP  RH WIND       PRES   REMARKS
AMES           CLOUDY    31  22  69 W5        30.07S WCI  26
6HR MIN TEMP:  29; 6HR MAX TEMP:  32;

ANKENY *       CLOUDY    32  21  64 CALM      30.09S
BOONE *        CLOUDY    30  23  74 W5        30.05S WCI  25
CHARITON *     CLOUDY    32  21  64 W3        30.07S
DES MOINES     CLOUDY    32  20  61 CALM      30.08S
6HR MIN TEMP:  31; 6HR MAX TEMP:  33;

GRINNELL*      CLOUDY    27  19  74 CALM      30.08S
KNOXVILLE *    CLOUDY    28  18  64 CALM      30.07S
MARSHALLTOWN   CLOUDY    27  19  72 SW3       30.05S
6HR MIN TEMP:  25; 6HR MAX TEMP:  28;

NEWTON *       CLOUDY    28  19  69 SW3       30.08R
PELLA *        CLOUDY    28  19  67 CALM      30.10R
PERRY *        CLOUDY    30  20  66 W5        30.07S WCI  25
$$

IAZ004>006-015-016-023>025-035-036-150100-
   NORTH CENTRAL IOWA

CITY           SKY/WX    TMP DP  RH WIND       PRES   REMARKS
ALGONA *       CLOUDY    30  23  74 NW7       30.05R WCI  23
CLARION *      CLOUDY    28  23  80 NW6       30.04S WCI  22
ESTHERVILLE    CLOUDY    27  21  78 NW13      30.05R WCI  16
6HR MIN TEMP:  27; 6HR MAX TEMP:  30; 6HR PCP: TRACE;

FORT DODGE *   MIX PCPN  30  23  75 W3        30.06R
MASON CITY     CLOUDY    24  19  81 W7        30.04S WCI  16
6HR MIN TEMP:  24; 6HR MAX TEMP:  25;

FOREST CITY *  CLOUDY    27  23  86 NW6       30.04R WCI  20
WEBSTER CITY * CLOUDY    30  21  69 W6        30.03F WCI  24
IOWA FALLS *   CLOUDY    30  22  72 W5        30.05S WCI  25
$$

IAZ007>011-017>019-026>030-037>042-050>054-066-150100-
   NORTHEAST IOWA

CITY           SKY/WX    TMP DP  RH WIND       PRES   REMARKS
CEDAR RAPIDS   CLOUDY    25  16  68 W6        30.07S WCI  18
6HR MIN TEMP:  24; 6HR MAX TEMP:  27;

CHARLES CITY * CLOUDY    25  19  80 W8        30.03S WCI  16
CLINTON *      CLOUDY    25  17  72 W9        30.08S WCI  15
DECORAH *      CLOUDY    23  18  80 VRB5      30.00F WCI  17
DUBUQUE        CLOUDY    24  16  71 W13       30.04S WCI  12
6HR MIN TEMP:  22; 6HR MAX TEMP:  26;

MONTICELLO *   CLOUDY    25  16  68 W13       30.06S WCI  13
OELWEIN *      CLOUDY    25  19  80 W9        30.03F WCI  15
WATERLOO       CLOUDY    26  17  68 W5        30.05S WCI  20
6HR MIN TEMP:  24; 6HR MAX TEMP:  27;

$$

IAZ064-065-067-068-078-150100-
   EAST CENTRAL IOWA

CITY           SKY/WX    TMP DP  RH WIND       PRES   REMARKS
DAVENPORT      CLOUDY    25  16  68 W9        30.10S WCI  15
6HR MIN TEMP:  25; 6HR MAX TEMP:  28;

IOWA CITY      CLOUDY    27  16  63 W3        30.11S
6HR MIN TEMP:  26; 6HR MAX TEMP:  28;

MT. PLEASANT * CLOUDY    26  16  64 CALM      30.11R
MUSCATINE *    CLOUDY    27  18  69 W9        30.11S WCI  17
QUAD CITIES    CLOUDY    27  17  66 SW7       30.09R WCI  19
6HR MIN TEMP:  27; 6HR MAX TEMP:  29;

$$

IAZ062-063-075>077-085>089-095>099-150100-
   SOUTHEAST IOWA

CITY           SKY/WX    TMP DP  RH WIND       PRES   REMARKS
BURLINGTON     CLOUDY    28  17  63 W8        30.10R WCI  20
6HR MIN TEMP:  27; 6HR MAX TEMP:  30;

FAIRFIELD *    CLOUDY    27  18  69 N5        30.09S WCI  21
FORT MADISON * CLOUDY    27  18  69 NW7       30.11R WCI  19
KEOKUK *       CLOUDY    28  18  64 MISG      30.10R
OSKALOOSA *    CLOUDY    27  19  70 CALM      30.09S
OTTUMWA        CLOUDY    28  17  63 NW6       30.09R WCI  22
6HR MIN TEMP:  26; 6HR MAX TEMP:  29;

WASHINGTON *   CLOUDY    27  18  69 NW3       30.11R
$$

ABBREVIATIONS USED IN REMARKS
   TC - TEMPERATURES IN CELSIUS
  WCI - WIND CHILL INDEX
   HX - HEAT INDEX
  VSB - VISIBILITY
$$



ASUS43 KDMX 150006
RWRIA

WEATHER ROUNDUP FOR IOWA
NATIONAL WEATHER SERVICE DES MOINES IA
600 PM CST THU DEC 14 2017

NOTE: "FAIR" INDICATES FEW OR NO CLOUDS BELOW 12,000 FEET WITH NO
SIGNIFICANT WEATHER AND/OR OBSTRUCTIONS TO VISIBILITY.

* - THESE STATIONS ARE NOT NWS STATIONS...THUS NOT UNDER NWS
QUALITY CONTROL.  THEY ALSO DO NOT REPORT WEATHER SUCH
AS PRECIPITATION OR FOG.

IAZ001>003-012>014-020>022-031>034-043>046-150100-
   NORTHWEST IOWA

CITY           SKY/WX    TMP DP  RH WIND       PRES   REMARKS
CARROLL *      CLOUDY    32  23  69 CALM      30.07R
CHEROKEE *     CLOUDY    32  28  85 CALM      30.06S
DENISON *      CLOUDY    32  23  69 CALM      30.08S
LE MARS *      MIX PCPN  36  28  75 NW7       30.08R WCI  30
ORANGE CITY *  CLOUDY    34  30  86 NW10      30.06R WCI  26
SHELDON *      CLOUDY    32  30  93 NW9       30.04R WCI  24
SIOUX CITY     CLOUDY    37  26  64 NW10      30.09R WCI  30
6HR MIN TEMP:  36; 6HR MAX TEMP:  39;

SPENCER        CLOUDY    30  24  78 NW5       30.06R WCI  25
6HR MIN TEMP:  28; 6HR MAX TEMP:  33; 6HR PCP: TRACE;

STORM LAKE *   MIX PCPN  32  27  80 NW6       30.05S WCI  26
$$

IAZ055>058-069>071-079>083-090>094-150100-
   SOUTHWEST IOWA

CITY           SKY/WX    TMP DP  RH WIND       PRES   REMARKS
ATLANTIC *     CLOUDY    34  23  64 CALM      30.08S
AUDUBON *      CLOUDY    34  25  69 CALM      30.08S
CLARINDA *       N/A     36  25  64 N8          N/A  WCI  29
COUNCIL BLFS * CLOUDY    36  27  69 NE3       30.09R
CRESTON *      CLOUDY    30  25  80 NW6       30.09S WCI  24
HARLAN  *      MOCLDY    30  23  74 CALM      30.11S
LAMONI         CLOUDY    32  23  69 NW3       30.08R
6HR MIN TEMP:  32; 6HR MAX TEMP:  34;

RED OAK *      CLOUDY    36  25  64 NE5       30.10R WCI  32
SHENANDOAH *   CLOUDY    36  25  64 N3        30.10S
$$

IAZ047>049-059>061-072>074-084-150100-
   CENTRAL IOWA

CITY           SKY/WX    TMP DP  RH WIND       PRES   REMARKS
AMES           CLOUDY    31  22  69 W5        30.07S WCI  26
6HR MIN TEMP:  29; 6HR MAX TEMP:  32;

ANKENY *       CLOUDY    32  21  64 CALM      30.09S
BOONE *        CLOUDY    30  23  74 W5        30.05S WCI  25
CHARITON *     CLOUDY    32  21  64 W3        30.07S
DES MOINES     CLOUDY    32  20  61 CALM      30.08S
6HR MIN TEMP:  31; 6HR MAX TEMP:  33;

GRINNELL*      CLOUDY    27  19  74 CALM      30.08S
KNOXVILLE *    CLOUDY    28  18  64 CALM      30.07S
MARSHALLTOWN   CLOUDY    27  19  72 SW3       30.05S
6HR MIN TEMP:  25; 6HR MAX TEMP:  28;

NEWTON *       CLOUDY    28  19  69 SW3       30.08R
PELLA *        CLOUDY    28  19  67 CALM      30.10R
PERRY *        CLOUDY    30  20  66 W5        30.07S WCI  25
$$

IAZ004>006-015-016-023>025-035-036-150100-
   NORTH CENTRAL IOWA

CITY           SKY/WX    TMP DP  RH WIND       PRES   REMARKS
ALGONA *       CLOUDY    30  23  74 NW7       30.05R WCI  23
CLARION *      CLOUDY    28  23  80 NW6       30.04S WCI  22
ESTHERVILLE    CLOUDY    27  21  78 NW13      30.05R WCI  16
6HR MIN TEMP:  27; 6HR MAX TEMP:  30; 6HR PCP: TRACE;

FORT DODGE *   MIX PCPN  30  23  75 W3        30.06R
MASON CITY     CLOUDY    24  19  81 W7        30.04S WCI  16
6HR MIN TEMP:  24; 6HR MAX TEMP:  25;

FOREST CITY *  CLOUDY    27  23  86 NW6       30.04R WCI  20
WEBSTER CITY * CLOUDY    30  21  69 W6        30.03F WCI  24
IOWA FALLS *   CLOUDY    30  22  72 W5        30.05S WCI  25
$$

IAZ007>011-017>019-026>030-037>042-050>054-066-150100-
   NORTHEAST IOWA

CITY           SKY/WX    TMP DP  RH WIND       PRES   REMARKS
CEDAR RAPIDS   CLOUDY    25  16  68 W6        30.07S WCI  18
6HR MIN TEMP:  24; 6HR MAX TEMP:  27;

CHARLES CITY * CLOUDY    25  19  80 W8        30.03S WCI  16
CLINTON *      CLOUDY    25  17  72 W9        30.08S WCI  15
DECORAH *      CLOUDY    23  18  80 VRB5      30.00F WCI  17
DUBUQUE        CLOUDY    24  16  71 W13       30.04S WCI  12
6HR MIN TEMP:  22; 6HR MAX TEMP:  26;

MONTICELLO *   CLOUDY    25  16  68 W13       30.06S WCI  13
OELWEIN *      CLOUDY    25  19  80 W9        30.03F WCI  15
WATERLOO       CLOUDY    26  17  68 W5        30.05S WCI  20
6HR MIN TEMP:  24; 6HR MAX TEMP:  27;

$$

IAZ064-065-067-068-078-150100-
   EAST CENTRAL IOWA

CITY           SKY/WX    TMP DP  RH WIND       PRES   REMARKS
DAVENPORT      CLOUDY    25  16  68 W9        30.10S WCI  15
6HR MIN TEMP:  25; 6HR MAX TEMP:  28;

IOWA CITY      CLOUDY    27  16  63 W3        30.11S
6HR MIN TEMP:  26; 6HR MAX TEMP:  28;

MT. PLEASANT * CLOUDY    26  16  64 CALM      30.11R
MUSCATINE *    CLOUDY    27  18  69 W9        30.11S WCI  17
QUAD CITIES    CLOUDY    27  17  66 SW7       30.09R WCI  19
6HR MIN TEMP:  27; 6HR MAX TEMP:  29;

$$

IAZ062-063-075>077-085>089-095>099-150100-
   SOUTHEAST IOWA

CITY           SKY/WX    TMP DP  RH WIND       PRES   REMARKS
BURLINGTON     CLOUDY    28  17  63 W8        30.10R WCI  20
6HR MIN TEMP:  27; 6HR MAX TEMP:  30;

FAIRFIELD *    CLOUDY    27  18  69 N5        30.09S WCI  21
FORT MADISON * CLOUDY    27  18  69 NW7       30.11R WCI  19
KEOKUK *       CLOUDY    28  18  64 MISG      30.10R
OSKALOOSA *    CLOUDY    27  19  70 CALM      30.09S
OTTUMWA        CLOUDY    28  17  63 NW6       30.09R WCI  22
6HR MIN TEMP:  26; 6HR MAX TEMP:  29;

WASHINGTON *   CLOUDY    27  18  69 NW3       30.11R
$$

ABBREVIATIONS USED IN REMARKS
   TC - TEMPERATURES IN CELSIUS
  WCI - WIND CHILL INDEX
   HX - HEAT INDEX
  VSB - VISIBILITY
$$



ASUS63 KDMX 150022
RTPDMX

Max/Min Temperature and Precipitation Table for Central Iowa
National Weather Service Des Moines IA
622 PM CST Thu Dec 14 2017

.BR DMX 1214 C DH18/DC1712141817/TAIRZS/TAIRZI/PP/SF/SD
:
: Values represent 18-hour highs...18-hour lows...
: and 24-hour precipitation ending at  6 PM Central Time
:
:                            Max   Min                Snow
:      Location             Temp  Temp   Pcpn   Snow Depth
:
LWD  : Lamoni ASOS        :  34 /  27 /  0.00 /      /
AMW  : Ames ASOS          :  32 /  20 /  0.00 /      /
DSM  : Des Moines ASOS    :  33 /  26 /  0.00 /  0.0 /   0
DMX  : NWS Johnston*      :  31 /  24 /  0.00 /  0.0 /   0
MIW  : Marshalltown ASOS  :  28 /  22 /  0.00 /      /
EST  : Estherville ASOS   :  30 /  21 /    T  /      /
FOD  : Fort Dodge AWOS    :  31 /  21 /    T  /      /
MCW  : Mason City ASOS    :  25 /  13 /  0.00 /      /
MSCI4: Mason City*        :   M /   M /     T /  0.0 /   0
ALO  : Waterloo ASOS      :  27 /  14 /  0.00 /  0.0 /   0
OTM  : Ottumwa ASOS       :  29 /  24 /  0.00 /      /
:
:* Cooperative weather observation site
:
:
: Other Automated Locations
:
: ...North Central Iowa...
AXA  : Algona AWOS        :  32 /  18 /  0.00 /      /
CAV  : Clarion AWOS       :  30 /  14 /  0.00 /      /
FXY  : Forest City AWOS   :  28 /  14 /  0.00 /      /
:
: ...West Central Iowa...
ADU  : Audubon AWOS       :  34 /  27 /  0.00 /      /
CIN  : Carroll AWOS       :  34 /  27 /  0.00 /      /
DNS  : Denison AWOS       :  36 /  27 /  0.00 /      /
:
: ...Central Iowa...
IKV  : Ankeny AWOS        :  32 /  25 /  0.00 /      /
BNW  : Boone AWOS         :  32 /  23 /  0.00 /      /
GGI  : Grinnell AWOS      :  28 /  21 /  0.00 /      /
IFA  : Iowa Falls AWOS    :  30 /  23 /  0.00 /      /
TNU  : Newton AWOS        :  28 /  25 /  0.00 /      /
PRO  : Perry AWOS         :  32 /  24 /  0.00 /      /
NSSI4: Prairie City/NS NWR:  30 /  23 /  0.00 /      /
EBS  : Webster City AWOS  :  32 /  16 /  0.00 /      /
:
: ...Southwestern Iowa...
AIO  : Atlantic AWOS      :  36 /  28 /  0.00 /      /
:
: ...South Central Iowa...
TVK  : Centerville AWOS   :  32 /  27 /  0.00 /      /
CNC  : Chariton AWOS      :  32 /  25 /  0.00 /      /
CSQ  : Creston AWOS       :  34 /  27 /  0.00 /      /
OXV  : Knoxville AWOS     :  30 /  25 /  0.00 /      /
SSFI4: Lucas/Stephens SF  :   M /   M /  0.00 /      /
I75  : Osceola AWOS       :  33 /  27 /  0.00 /      /
PEA  : Pella AWOS         :  29 /  25 /  0.00 /      /
:
: ...Southeastern Iowa...
OOA  : Oskaloosa AWOS     :  28 /  23 /  0.00 /      /
:
.END


.BR DMX 1214 C DH1817/DC1712141817/TX/TN/PP/SF/SD
:
: Values represent the 24 hours ending around 7 PM Central Time
:
: Cooperative observer and other locations
:
:                          Date/Time   Max   Min                Snow
:      Location               DDHHMM  Temp  Temp   Pcpn   Snow Depth
:
: ...Northwestern Iowa...
:
: ...North Central Iowa...
:
: ...Northeastern Iowa...
:
: ...West Central Iowa...
COOI4: Coon Rapids        : DD141800/     /     /  0.00 /      /
RWCI4: Rockwell City      : DD141800/     /     /  0.00 /      /
:
: ...Central Iowa...
MXWI4: Maxwell            : DD141800/     /     /  0.00 /      /
OGDI4: Ogden              : DD141800/     /     /  0.00 /      /
STYI4: Story City         : DD141800/     /     /  0.00 /      /
:
: ...Southwestern Iowa...
ADAI4: Adair              : DD141800/     /     /  0.00 /      /
GRNI4: Greenfield         : DD141800/     /     /  0.00 /      /
:
: ...South Central Iowa...
CMBI4: Columbia           : DD141800/     /     /  0.00 /      /
:
: ...Southeastern Iowa...
:
.END

These data are preliminary and have not undergone final quality
control /QC/ by NCDC. Therefore, these data are subject to revision.
Final and certified climate data can be accessed at the National
Climatic Data Center /NCDC/ - www.ncdc.noaa.gov .

$$




Office: FSD ASUS43 KFSD 150002 RWRSD WEATHER ROUNDUP FOR SOUTH DAKOTA NATIONAL WEATHER SERVICE SIOUX FALLS SD 600 PM CST THU DEC 14 2017 NOTE: "FAIR" INDICATES FEW OR NO CLOUDS BELOW 12,000 FEET WITH NO SIGNIFICANT WEATHER AND/OR OBSTRUCTIONS TO VISIBILITY. SDZ001>005-009-010-012>017-150100- NORTHWEST AND NORTH CENTRAL SOUTH DAKOTA CITY SKY/WX TMP DP RH WIND PRES REMARKS BUFFALO N/A 29 22 75 W10 30.07F WCI 20 FAITH N/A 32 28 85 NW12 30.15S WCI 23 MOBRIDGE CLOUDY 35 25 66 NW9 30.09F WCI 28 $$ SDZ012>016-024>037-041>051-057-063-072>074-150100- SOUTHWEST AND SOUTH CENTRAL SOUTH DAKOTA CITY SKY/WX TMP DP RH WIND PRES REMARKS RAPID CTY ARPT CLOUDY 33 20 58 NW12 30.20R WCI 24 PIERRE CLOUDY 32 26 78 NW7 30.15F WCI 26 CUSTER CLEAR 21 13 71 W6 30.12R WCI 13 ELLSWORTH AFB CLOUDY 33 21 61 NW12 30.18R WCI 24 PHILIP CLOUDY 33 30 88 NW8 30.19S WCI 26 PINE RIDGE CLOUDY 31 22 69 N6 30.20R WCI 25 SPEARFISH MOCLDY 28 19 69 W10 30.17F WCI 19 WINNER CLOUDY 33 27 78 N14 30.18R WCI 23 $$ SDZ004>011-016>023-039-040-150100- NORTHEAST SOUTH DAKOTA CITY SKY/WX TMP DP RH WIND PRES REMARKS ABERDEEN CLOUDY 26 25 96 SW7 30.10F WCI 18 WATERTOWN CLOUDY 25 22 88 NW13 30.07R WCI 14 BROOKINGS CLOUDY 26 24 92 NW7 N/A WCI 18 SISSETON N/A 26 23 88 NW3 30.07F $$ SDZ017-020-022-023-036>040-048>070-150100- SOUTHEAST SOUTH DAKOTA CITY SKY/WX TMP DP RH WIND PRES REMARKS SIOUX FALLS CLOUDY 32 25 75 N12 30.08R WCI 23 HURON PTCLDY 25 24 96 N7 30.15R WCI 17 CHAMBERLAIN CLOUDY 33 30 87 NW8 30.17R WCI 26 MITCHELL CLOUDY 33 28 81 N10 30.15R WCI 25 YANKTON LGT RAIN 34 29 82 NW13 30.12R WCI 25 $$ ABBREVIATIONS USED IN REMARKS TC - TEMPERATURE IN CELSIUS WCI - WIND CHILL INDEX HX - HEAT INDEX VSB - VISIBILITY ASUS43 KFSD 150002 RWRFSD WEATHER ROUNDUP FOR SE SOUTH DAKOTA/SW MINNESOTA/NW IOWA NATIONAL WEATHER SERVICE SIOUX FALLS SD 600 PM CST THU DEC 14 2017 NOTE: "FAIR" INDICATES FEW OR NO CLOUDS BELOW 12,000 FEET WITH NO SIGNIFICANT WEATHER AND OR OBSTRUCTIONS TO VISIBILITY. SDZ038>040-050-052>070-150100- SOUTHEAST SOUTH DAKOTA CITY SKY/WX TMP DP RH WIND PRES REMARKS BROOKINGS CLOUDY 26 24 92 NW7 N/A WCI 18 CHAMBERLAIN CLOUDY 33 30 87 NW8 30.17R WCI 26 6HR MIN TEMP: 33; 6HR MAX TEMP: 37; HURON PTCLDY 25 24 96 N7 30.15R WCI 17 6HR MIN TEMP: 25; 6HR MAX TEMP: 35; 6HR PCP: TRACE; MADISON CLOUDY 28 28 100 N14 30.08R WCI 17 MITCHELL CLOUDY 33 28 81 N10 30.15R WCI 25 6HR MIN TEMP: 33; 6HR MAX TEMP: 37; 6HR PCP: TRACE; SIOUX FALLS CLOUDY 32 25 75 N12 30.08R WCI 23 6HR MIN TEMP: 32; 6HR MAX TEMP: 37; 6HR PCP: TRACE; WINNER CLOUDY 33 27 78 N14 30.18R WCI 23 YANKTON LGT RAIN 34 29 82 NW13 30.12R WCI 25 $$ MNZ071-072-080-081-089-090-097-098-150100- SOUTHWEST MINNESOTA CITY SKY/WX TMP DP RH WIND PRES REMARKS FAIRMONT CLOUDY 27 20 75 NW12 30.06R WCI 17 JACKSON CLOUDY 28 21 74 MISG 30.05R LUVERNE CLOUDY 32 28 86 N21 30.06R WCI 20 MARSHALL CLOUDY 25 23 92 NW13 30.08S WCI 14 6HR MIN TEMP: 25; 6HR MAX TEMP: 28; 6HR PCP: TRACE; MONTEVIDEO CLOUDY 25 19 80 NW8 30.08S WCI 16 PIPESTONE CLOUDY 27 25 93 CALM 30.05F REDWOOD FALLS CLOUDY 27 21 78 NW16G24 30.06S WCI 15 WINDOM N/A 27 14 59 NW10 30.05S HAZE WCI 17 WORTHINGTON CLOUDY 26 24 92 N13 30.06R WCI 15 $$ IAZ001>003-012>014-020>022-031-032-NEZ013-014-SDZ071-150100- NORTHWEST IOWA CITY SKY/WX TMP DP RH WIND PRES REMARKS CHEROKEE CLOUDY 32 28 85 CALM 30.06S DENISON CLOUDY 32 23 69 CALM 30.08S ESTHERVILLE CLOUDY 27 21 78 NW13 30.05R WCI 16 LE MARS MIX PCPN 36 28 75 NW7 30.08R ORANGE CITY CLOUDY 34 30 86 NW10 30.06R WCI 26 SHELDON CLOUDY 32 30 93 NW9 30.04R WCI 24 SIOUX CITY CLOUDY 37 26 64 NW10 30.09R 6HR MIN TEMP: 36; 6HR MAX TEMP: 39; SPENCER CLOUDY 30 24 78 NW5 30.06R WCI 25 6HR MIN TEMP: 28; 6HR MAX TEMP: 33; 6HR PCP: TRACE; STORM LAKE MIX PCPN 32 27 80 NW6 30.05S WCI 26 $$ ABBREVIATIONS USED IN REMARKS TC - TEMPERATURE IN CELSIUS WCI - WIND CHILL INDEX HX - HEAT INDEX VSB - VISIBILITY ASUS43 KFSD 150010 RWRSD WEATHER ROUNDUP FOR SOUTH DAKOTA NATIONAL WEATHER SERVICE SIOUX FALLS SD 600 PM CST THU DEC 14 2017 NOTE: "FAIR" INDICATES FEW OR NO CLOUDS BELOW 12,000 FEET WITH NO SIGNIFICANT WEATHER AND/OR OBSTRUCTIONS TO VISIBILITY. SDZ001>005-009-010-012>017-150100- NORTHWEST AND NORTH CENTRAL SOUTH DAKOTA CITY SKY/WX TMP DP RH WIND PRES REMARKS BUFFALO N/A 29 22 75 W10 30.07F WCI 20 FAITH N/A 32 28 85 NW12 30.15S WCI 23 MOBRIDGE CLOUDY 35 25 66 NW9 30.09F WCI 28 $$ SDZ012>016-024>037-041>051-057-063-072>074-150100- SOUTHWEST AND SOUTH CENTRAL SOUTH DAKOTA CITY SKY/WX TMP DP RH WIND PRES REMARKS RAPID CTY ARPT CLOUDY 33 20 58 NW12 30.20R WCI 24 PIERRE CLOUDY 32 26 78 NW7 30.15F WCI 26 CUSTER CLEAR 21 13 71 W6 30.12R WCI 13 ELLSWORTH AFB CLOUDY 33 21 61 NW12 30.18R WCI 24 PHILIP CLOUDY 33 30 88 NW8 30.19S WCI 26 PINE RIDGE CLOUDY 31 22 69 N6 30.20R WCI 25 SPEARFISH MOCLDY 28 19 69 W10 30.17F WCI 19 WINNER CLOUDY 33 27 78 N14 30.18R WCI 23 $$ SDZ004>011-016>023-039-040-150100- NORTHEAST SOUTH DAKOTA CITY SKY/WX TMP DP RH WIND PRES REMARKS ABERDEEN CLOUDY 26 25 96 SW7 30.10F WCI 18 WATERTOWN CLOUDY 25 22 88 NW13 30.07R WCI 14 BROOKINGS CLOUDY 26 24 92 NW7 N/A WCI 18 SISSETON N/A 26 23 88 NW3 30.07F $$ SDZ017-020-022-023-036>040-048>070-150100- SOUTHEAST SOUTH DAKOTA CITY SKY/WX TMP DP RH WIND PRES REMARKS SIOUX FALLS CLOUDY 32 25 75 N12 30.08R WCI 23 HURON PTCLDY 25 24 96 N7 30.15R WCI 17 CHAMBERLAIN CLOUDY 33 30 87 NW8 30.17R WCI 26 MITCHELL CLOUDY 33 28 81 N10 30.15R WCI 25 YANKTON LGT RAIN 34 29 82 NW13 30.12R WCI 25 $$ ABBREVIATIONS USED IN REMARKS TC - TEMPERATURE IN CELSIUS WCI - WIND CHILL INDEX HX - HEAT INDEX VSB - VISIBILITY ASUS43 KFSD 150010 RWRFSD WEATHER ROUNDUP FOR SE SOUTH DAKOTA/SW MINNESOTA/NW IOWA NATIONAL WEATHER SERVICE SIOUX FALLS SD 600 PM CST THU DEC 14 2017 NOTE: "FAIR" INDICATES FEW OR NO CLOUDS BELOW 12,000 FEET WITH NO SIGNIFICANT WEATHER AND OR OBSTRUCTIONS TO VISIBILITY. SDZ038>040-050-052>070-150100- SOUTHEAST SOUTH DAKOTA CITY SKY/WX TMP DP RH WIND PRES REMARKS BROOKINGS CLOUDY 26 24 92 NW7 N/A WCI 18 CHAMBERLAIN CLOUDY 33 30 87 NW8 30.17R WCI 26 6HR MIN TEMP: 33; 6HR MAX TEMP: 37; HURON PTCLDY 25 24 96 N7 30.15R WCI 17 6HR MIN TEMP: 25; 6HR MAX TEMP: 35; 6HR PCP: TRACE; MADISON CLOUDY 28 28 100 N14 30.08R WCI 17 MITCHELL CLOUDY 33 28 81 N10 30.15R WCI 25 6HR MIN TEMP: 33; 6HR MAX TEMP: 37; 6HR PCP: TRACE; SIOUX FALLS CLOUDY 32 25 75 N12 30.08R WCI 23 6HR MIN TEMP: 32; 6HR MAX TEMP: 37; 6HR PCP: TRACE; WINNER CLOUDY 33 27 78 N14 30.18R WCI 23 YANKTON LGT RAIN 34 29 82 NW13 30.12R WCI 25 $$ MNZ071-072-080-081-089-090-097-098-150100- SOUTHWEST MINNESOTA CITY SKY/WX TMP DP RH WIND PRES REMARKS FAIRMONT CLOUDY 27 20 75 NW12 30.06R WCI 17 JACKSON CLOUDY 28 21 74 MISG 30.05R LUVERNE CLOUDY 32 28 86 N21 30.06R WCI 20 MARSHALL CLOUDY 25 23 93 NW12 30.09R WCI 14 6HR MIN TEMP: 25; 6HR MAX TEMP: 28; 6HR PCP: TRACE; MONTEVIDEO CLOUDY 25 19 80 NW8 30.08S WCI 16 PIPESTONE CLOUDY 27 25 93 CALM 30.05F REDWOOD FALLS CLOUDY 27 21 78 NW16G24 30.06S WCI 15 WINDOM N/A 27 14 59 NW10 30.05S HAZE WCI 17 WORTHINGTON CLOUDY 26 24 92 N13 30.06R WCI 15 $$ IAZ001>003-012>014-020>022-031-032-NEZ013-014-SDZ071-150100- NORTHWEST IOWA CITY SKY/WX TMP DP RH WIND PRES REMARKS CHEROKEE CLOUDY 32 28 85 CALM 30.06S DENISON CLOUDY 32 23 69 CALM 30.08S ESTHERVILLE CLOUDY 27 21 78 NW13 30.05R WCI 16 LE MARS MIX PCPN 36 28 75 NW7 30.08R ORANGE CITY CLOUDY 34 30 86 NW10 30.06R WCI 26 SHELDON CLOUDY 32 30 93 NW9 30.04R WCI 24 SIOUX CITY CLOUDY 37 26 64 NW10 30.09R 6HR MIN TEMP: 36; 6HR MAX TEMP: 39; SPENCER CLOUDY 30 24 78 NW5 30.06R WCI 25 6HR MIN TEMP: 28; 6HR MAX TEMP: 33; 6HR PCP: TRACE; STORM LAKE MIX PCPN 32 27 80 NW6 30.05S WCI 26 $$ ABBREVIATIONS USED IN REMARKS TC - TEMPERATURE IN CELSIUS WCI - WIND CHILL INDEX HX - HEAT INDEX VSB - VISIBILITY ASUS63 KFSD 150023 RTPFSD Max/Min Temperature and Precipitation Table For SE South Dakota/SW Minnesota/NW Iowa/NE Nebraska National Weather Service Sioux Falls SD 623 PM CST Thu Dec 14 2017 Values represent Lows over the last 18 hours... Highs over the last 18 hours and Precipitation over the last 24 hours .BR FSD 1214 C DH18/TAIRZSZ/TAIRZIZ/PPDRZZZ : : MAX MIN :ID LOCATION TEMP TEMP PCPN : : Southeast South Dakota... : BKX :Brookings SD : 31 / 25 / T 9V9 :Chamberlain SD : 37 / 29 / T HON :Huron SD : 35 / 23 / T MHE :Mitchell SD : 37 / 25 / T MDS :Madison SD : 32 / 27 / T FSD :Sioux Falls SD : 37 / 28 / T YKN :Yankton SD : 37 / 26 / T : : Southwest Minnesota... : LYV :Luverne MN : 32 / 27 / T DVP :Slayton MN : 30 / 20 / T MJQ :Jackson MN : 32 / 21 / M MML :Marshall MN : 28 / 20 / T PQN :Pipestone MN : 30 / 23 / T TKC :Tracy MN : 28 / 21 / T MWM :Windom MN : 30 / 21 / M OTG :Worthington MN : 31 / 21 / T : : Northwest Iowa... : CKP :Cherokee IA : 34 / 25 / T LRJ :Le Mars IA : 37 / 28 / T ORC :Orange City IA : 36 / 27 / T SHL :Sheldon IA : 34 / 23 / T SUX :Sioux City IA : 39 / 29 / 0.00 SPW :Spencer IA : 33 / 19 / T SLB :Storm Lake IA : 32 / 23 / T .End These data are preliminary and have not undergone final quality control by the National Climatic Data Center /NCDC/. Therefore... these data are subject to revision. Final and certified climate data can be accessed at www.ncdc.noaa.gov. $$
Office: EAX ASUS43 KEAX 150010 RWREAX WEATHER ROUNDUP FOR EASTERN KANSAS AND NORTHWEST MISSOURI NATIONAL WEATHER SERVICE KANSAS CITY/PLEASANT HILL MO 600 PM CST THU DEC 14 2017 KSZ040-057-103>105-MOZ028-029-037-043-150100- ...KANSAS CITY METROPOLITAN AREA... CITY SKY/WX TMP DP RH WIND PRES REMARKS K.C. INTL CLOUDY 37 24 59 CALM 30.09R 6HR MIN TEMP: 37; 6HR MAX TEMP: 41; K.C. DOWNTOWN CLOUDY 41 24 51 SW3 30.09R 6HR MIN TEMP: 40; 6HR MAX TEMP: 42; LEES SUMMIT CLOUDY 38 23 55 CALM 30.09R 6HR MIN TEMP: 38; 6HR MAX TEMP: 40; 6HR PCP: TRACE; OLATHE - IXD CLOUDY 38 26 62 CALM 30.09R 6HR MIN TEMP: 38; 6HR MAX TEMP: 41; OLATHE - OJC CLOUDY 37 26 64 CALM 30.09R 6HR MIN TEMP: 37; 6HR MAX TEMP: 40; LAWRENCE CLOUDY 41 26 55 CALM 30.09R $$ MOZ001>008-011>017-020>025-030>033-038>040-044>046-053-054-150100- ...NORTHERN AND CENTRAL MISSOURI... CITY SKY/WX TMP DP RH WIND PRES REMARKS ST. JOSEPH CLOUDY 39 26 59 N5 30.10R 6HR MIN TEMP: 38; 6HR MAX TEMP: 43; MOSBY CLOUDY 37 23 56 CALM 30.10R WARRENSBURG CLOUDY 34 27 75 CALM 30.10S WHITEMAN AFB CLOUDY 34 23 64 SE3 30.06R 6HR MIN TEMP: 34; 6HR MAX TEMP: 37; CLINTON CLOUDY 36 27 69 CALM 30.11S SEDALIA CLOUDY 36 25 64 CALM 30.11S 6HR MIN TEMP: 35; 6HR MAX TEMP: 37; WARSAW NOT AVBL CHILLICOTHE N/A 34 23 64 CALM 30.12R 6HR MIN TEMP: 33; 6HR MAX TEMP: 36; KIRKSVILLE CLOUDY 31 25 78 CALM 30.10R 6HR MIN TEMP: 28; 6HR MAX TEMP: 32; $$ MOZ041-047>049-056>058-063>065-088>090-097-150100- ...EASTERN AND SOUTHERN MISSOURI... CITY SKY/WX TMP DP RH WIND PRES REMARKS ST. LOUIS INTL CLOUDY 31 20 63 NW5 30.12R WCI 26 6HR MIN TEMP: 31; 6HR MAX TEMP: 32; SPIRIT OF STL CLOUDY 32 21 64 CALM 30.11R COLUMBIA CLOUDY 32 21 64 NE3 30.10R JEFFERSON CITY CLOUDY 34 21 59 CALM 30.12R ROLLA CLOUDY 32 22 66 NW6 30.09R WCI 26 OSAGE BEACH CLOUDY 34 22 61 N3 30.12R SPRINGFIELD CLOUDY 36 25 64 N3 30.08R BRANSON CLOUDY 37 23 56 NW9 30.09R WCI 31 JOPLIN PTCLDY 35 27 72 W6 30.11R WCI 30 WEST PLAINS CLOUDY 36 21 54 N9 30.09R WCI 29 $$ IAZ060-094-KSZ022-034>040-054-083-096-NEZ052-066-093-150100- ...KANSAS...SOUTHEAST NEBRASKA AND IOWA... CITY SKY/WX TMP DP RH WIND PRES REMARKS TOPEKA CLOUDY 44 27 51 W5 30.09R 6HR MIN TEMP: 43; 6HR MAX TEMP: 48; MANHATTAN CLOUDY 44 31 60 NW6 30.10R EMPORIA CLOUDY 43 28 55 NW8 30.09R CHANUTE PTCLDY 34 25 69 CALM 30.10R WICHITA CLOUDY 48 31 51 NW13 30.11R OMAHA CLOUDY 38 24 57 N3 30.10R LINCOLN CLOUDY 37 33 85 NW8 30.13R WCI 31 FALLS CITY CLOUDY 40 25 55 N6 30.09R LAMONI CLOUDY 32 23 69 NW3 30.08R DES MOINES CLOUDY 32 20 61 CALM 30.08S $$ ASUS63 KEAX 150020 RTPEAX Max/Min Temperature and Precipitation Table for Northeast Kansas...Northwest and North Central Missouri National Weather Service Kansas City/Pleasant Hill MO 620 PM CST Thu Dec 14 2017 Values represent 18 hour high, low over the last 18 hours and precipitation over the last 24 hours ending at 6 pm. .BR EAX 1214 C DH18/TAIRZS/TAIRZI/PPDRZZ/SFDRZZ/SDIRZZ :Area Max/Min Temperature and Precipitation Report :................................................................ : Station Max / Min / 24-hr / Snow / Snow : Name Temp/ Temp / Precip / Fall / Depth :................................................................ : : MCI : Kansas City Intl : 41 / 35 / 0.00 / / STJ : St Joseph : 43 / 34 / 0.00 / / MKC : Kansas City Dwtn : 42 / 37 / 0.00 / / OJC : Johnson Co Exec : 40 / 33 / 0.00 / / IXD : Olathe New Cent : 41 / 28 / 0.00 / / CDJ : Chillicothe : 37 / 28 / 0.00 / / IRK : Kirksville : 34 / 27 / 0.00 / / DMO : Sedalia : 41 / 29 / 0.00 / / LXT : Lee's Summit : 40 / 36 / 0.00 / / .END These data are preliminary and have not undergone final quality control. Therefore, these data are subject to revision. Final and certified climate data can be accessed at the National Centers for Environmental Information (NCEI) at www.ncei.noaa.gov $$